Aberdeen, SD

9:15 AM CDT on October 18, 2017 (GMT -0500)
Aberdeen Regional

Weather History for KABR - October, 2012

Change the Weather History Date:

Sunday, October 28, 2012

  Actual Average Record
Temperature  
Mean Temperature 39 °F 40 °F  
Max Temperature 45 °F 51 °F 82 °F (1937)
Min Temperature 32 °F 28 °F -6 °F (1919)
Degree Days  
Heating Degree Days 26 25  
Month to date heating degree days 576 537  
Since 1 July heating degree days 818 811  
Cooling Degree Days 0 0  
Month to date cooling degree days 0 0  
Year to date cooling degree days 764 523  
Moisture  
Dew Point 31 °F    
Average Humidity 77    
Maximum Humidity 92    
Minimum Humidity 62    
Precipitation  
Precipitation 0.00 in 0.05 in 1.02 in (1991)
Month to date precipitation 1.03 1.86  
Year to date precipitation 13.48 20.34  
Snow  
Snow 0.00 in - - ()
Month to date snowfall T  
Since 1 July snowfall T  
Snow Depth 0.00 in    
Sea Level Pressure  
Sea Level Pressure 30.21 in    
Wind  
Wind Speed 9 mph (ENE)    
Max Wind Speed 15 mph    
Max Gust Speed 20 mph    
Visibility 8 miles    
Events      
T = Trace of Precipitation, MM = Missing Value Source: NWS Daily Summary

Daily Weather History Graph

Daily Weather History Graph

Search for Another Location

Airport or City:

Trip Planner

Search our weather history database for the weather conditions in past years. The results will help you decide how hot, cold, wet, or windy it might be!

Date:

Astronomy

Oct. 28, 2012 Rise Set
Actual Time 8:08 AM CDT 6:25 PM CDT
Civil Twilight 7:37 AM CDT 6:56 PM CDT
Nautical Twilight 7:02 AM CDT 7:31 PM CDT
Astronomical Twilight 6:28 AM CDT 8:05 PM CDT
Moon 5:44 PM CDT (10/28) 7:01 AM CDT (10/28)
Length of Visible Light 11h 18m
Length of Day
10h 17m
Waxing Gibbous, 99% of the Moon is Illuminated
Oct 28
Waxing Gibbous
Oct 29
Full
Nov 6
Last Quarter
Nov 13
New
Nov 20
First Quarter

Hourly Weather History & Observations

Time (CDT) Temp. Windchill Dew Point Humidity Pressure Visibility Wind Dir Wind Speed Gust Speed Precip Events Conditions
12:23 AM 37.4 °F 31.4 °F 32.0 °F 81% 30.22 in 10.0 mi South 8.1 mph - N/A   Overcast
12:53 AM 37.9 °F 35.5 °F 32.0 °F 79% 30.26 in 10.0 mi SW 3.5 mph - N/A   Overcast
1:05 AM 37.4 °F 32.1 °F 32.0 °F 81% 30.22 in 10.0 mi SSW 6.9 mph - N/A   Overcast
1:39 AM 37.4 °F - 32.0 °F 81% 30.23 in 10.0 mi Calm Calm - N/A   Overcast
1:53 AM 35.1 °F 29.3 °F 30.0 °F 82% 30.27 in 10.0 mi North 6.9 mph - N/A   Overcast
2:53 AM 34.0 °F 28.0 °F 28.9 °F 82% 30.26 in 10.0 mi North 6.9 mph - N/A   Overcast
3:24 AM 33.8 °F 27.7 °F 28.4 °F 81% 30.22 in 8.0 mi NNE 6.9 mph - N/A   Overcast
3:53 AM 33.1 °F 26.1 °F 28.9 °F 85% 30.25 in 8.0 mi NE 8.1 mph - N/A   Overcast
4:18 AM 33.8 °F 27.7 °F 28.4 °F 81% 30.21 in 7.0 mi NE 6.9 mph - N/A   Overcast
4:53 AM 33.1 °F 27.7 °F 28.9 °F 85% 30.25 in 8.0 mi NE 5.8 mph - N/A   Overcast
5:37 AM 33.8 °F 27.7 °F 28.4 °F 81% 30.22 in 8.0 mi NE 6.9 mph - N/A   Overcast
5:53 AM 33.1 °F 26.9 °F 28.9 °F 85% 30.25 in 8.0 mi NE 6.9 mph - N/A   Overcast
6:53 AM 33.1 °F 26.9 °F 28.9 °F 85% 30.27 in 8.0 mi NNE 6.9 mph - N/A   Overcast
7:53 AM 32.0 °F 24.8 °F 28.9 °F 88% 30.27 in 6.0 mi NE 8.1 mph - N/A   Overcast
8:16 AM 32.0 °F 24.8 °F 30.2 °F 93% 30.23 in 5.0 mi NE 8.1 mph - N/A   Overcast
8:49 AM 32.0 °F 24.8 °F 30.2 °F 93% 30.23 in 2.5 mi NE 8.1 mph - N/A   Overcast
8:53 AM 32.0 °F 25.6 °F 30.0 °F 92% 30.27 in 2.5 mi NE 6.9 mph - N/A   Overcast
9:17 AM 32.0 °F 24.8 °F 30.2 °F 93% 30.23 in 1.8 mi ENE 8.1 mph - N/A   Overcast
9:27 AM 32.0 °F 24.2 °F 30.2 °F 93% 30.22 in 2.5 mi ENE 9.2 mph - N/A   Overcast
9:44 AM 33.8 °F 25.8 °F 30.2 °F 87% 30.21 in 3.0 mi ENE 10.4 mph - N/A   Overcast
9:53 AM 33.1 °F 25.5 °F 30.9 °F 92% 30.25 in 4.0 mi ENE 9.2 mph - N/A   Overcast
10:36 AM 35.6 °F 29.2 °F 30.2 °F 81% 30.21 in 7.0 mi East 8.1 mph - N/A   Overcast
10:53 AM 35.1 °F 28.6 °F 32.0 °F 89% 30.25 in 8.0 mi East 8.1 mph - N/A   Overcast
11:53 AM 37.9 °F 34.4 °F 32.0 °F 79% 30.23 in 10.0 mi ESE 4.6 mph - N/A   Overcast
12:01 PM 37.4 °F 32.8 °F 32.0 °F 81% 30.20 in 10.0 mi SE 5.8 mph - N/A   Overcast
12:18 PM 39.2 °F 32.5 °F 30.2 °F 70% 30.19 in 10.0 mi East 10.4 mph - N/A   Overcast
12:53 PM 41.0 °F 34.7 °F 30.9 °F 67% 30.21 in 10.0 mi East 10.4 mph - N/A   Overcast
1:53 PM 42.8 °F 36.2 °F 30.2 °F 61% 30.16 in 10.0 mi East 12.7 mph - N/A   Overcast
2:53 PM 43.0 °F 37.2 °F 30.9 °F 62% 30.18 in 10.0 mi East 10.4 mph - N/A   Overcast
3:02 PM 42.8 °F 38.0 °F 30.2 °F 61% 30.14 in 10.0 mi East 8.1 mph - N/A   Overcast
3:53 PM 45.0 °F 40.1 °F 32.0 °F 60% 30.16 in 10.0 mi East 9.2 mph - N/A   Overcast
4:53 PM 45.0 °F 38.5 °F 32.0 °F 60% 30.15 in 10.0 mi East 13.8 mph - N/A   Clear
5:53 PM 45.0 °F 39.7 °F 32.0 °F 60% 30.15 in 10.0 mi East 10.4 mph - N/A   Overcast
6:53 PM 42.1 °F 37.1 °F 32.0 °F 67% 30.15 in 10.0 mi East 8.1 mph - N/A   Mostly Cloudy
7:53 PM 42.1 °F 37.1 °F 32.0 °F 67% 30.14 in 10.0 mi East 8.1 mph - N/A   Overcast
8:53 PM 39.0 °F 33.4 °F 32.0 °F 76% 30.14 in 10.0 mi ENE 8.1 mph - N/A   Overcast
9:53 PM 39.0 °F 32.8 °F 32.0 °F 76% 30.13 in 10.0 mi East 9.2 mph - N/A   Overcast
10:53 PM 41.0 °F 35.8 °F 33.1 °F 73% 30.12 in 10.0 mi SE 8.1 mph - N/A   Overcast
11:53 PM 42.1 °F 35.2 °F 30.9 °F 65% 30.10 in 10.0 mi SSE 12.7 mph - N/A   Mostly Cloudy